When you browse on this site, cookies collect data to enhance your experience and personalize the content and advertising you see.
Visit our Privacy Policy to learn more. By continuing to use the site, you agree to this use of cookies and data.
  • In Österreich
  • Länderverzeichnis
  • Für 7 Tage
  • Wassertemperatur
  • Wetterkarte
  • News
  • Widgets
  • user-avatar
    Anmelden

    Stündliche Wetter Siempang

    Heute, 20 Januar, Montag

    Zeit Temperatur Niederschläge Wind Luftdruck Luftfeuchtigkeit
    00:00 +23°C° 0 mm 1 m/S 754 mmHg 68%
    01:00 +22°C° 0 mm 1 m/S 754 mmHg 69%
    02:00 +22°C° 0 mm 1 m/S 754 mmHg 72%
    03:00 +21°C° 0 mm 1 m/S 754 mmHg 74%
    04:00 +20°C° 0 mm 1 m/S 753 mmHg 77%
    05:00 +20°C° 0 mm 1 m/S 754 mmHg 77%
    06:00 +20°C° 0 mm 1 m/S 754 mmHg 78%
    07:00 +20°C° 0 mm 1 m/S 755 mmHg 78%
    08:00 +24°C° 0 mm 1 m/S 755 mmHg 68%
    09:00 +27°C° 0 mm 1 m/S 755 mmHg 57%
    10:00 +30°C° 0 mm 1 m/S 755 mmHg 47%
    11:00 +32°C° 0 mm 1 m/S 754 mmHg 43%
    12:00 +32°C° 0 mm 0 m/S 754 mmHg 38%
    13:00 +35°C° 0 mm 0 m/S 753 mmHg 34%
    14:00 +36°C° 0 mm 1 m/S 752 mmHg 33%
    15:00 +36°C° 0 mm 1 m/S 752 mmHg 33%
    16:00 +36°C° 0 mm 1 m/S 751 mmHg 32%
    17:00 +33°C° 0 mm 1 m/S 752 mmHg 37%
    18:00 +31°C° 0 mm 1 m/S 752 mmHg 43%
    19:00 +28°C° 0 mm 1 m/S 753 mmHg 48%
    20:00 +27°C° 0 mm 1 m/S 754 mmHg 51%
    21:00 +26°C° 0 mm 1 m/S 754 mmHg 55%
    22:00 +25°C° 0 mm 2 m/S 755 mmHg 59%
    23:00 +24°C° 0 mm 1 m/S 755 mmHg 64%

    Morgen, 21 Januar, Dienstag

    Zeit Temperatur Niederschläge Wind Luftdruck Luftfeuchtigkeit
    00:00 +23°C° 0 mm 1 m/S 755 mmHg 68%
    01:00 +22°C° 0 mm 1 m/S 755 mmHg 73%
    02:00 +21°C° 0 mm 1 m/S 755 mmHg 76%
    03:00 +21°C° 0 mm 1 m/S 755 mmHg 80%
    04:00 +20°C° 0 mm 1 m/S 755 mmHg 83%
    05:00 +20°C° 0 mm 1 m/S 755 mmHg 82%
    06:00 +20°C° 0 mm 1 m/S 755 mmHg 82%
    07:00 +18°C° 0 mm 0 m/S 756 mmHg 82%
    08:00 +24°C° 0 mm 1 m/S 756 mmHg 70%
    09:00 +27°C° 0 mm 1 m/S 756 mmHg 58%
    10:00 +30°C° 0 mm 1 m/S 756 mmHg 45%
    11:00 +33°C° 0 mm 1 m/S 755 mmHg 41%
    12:00 +35°C° 0 mm 1 m/S 754 mmHg 36%
    13:00 +37°C° 0 mm 1 m/S 753 mmHg 31%
    14:00 +37°C° 0 mm 1 m/S 753 mmHg 31%
    15:00 +37°C° 0 mm 1 m/S 752 mmHg 30%
    16:00 +37°C° 0 mm 1 m/S 751 mmHg 29%
    17:00 +34°C° 0 mm 1 m/S 752 mmHg 35%
    18:00 +29°C° 0 mm 0 m/S 752 mmHg 41%
    19:00 +26°C° 0 mm 0 m/S 753 mmHg 47%
    20:00 +25°C° 0 mm 0 m/S 753 mmHg 50%
    21:00 +26°C° 0 mm 1 m/S 754 mmHg 53%
    22:00 +25°C° 0 mm 1 m/S 755 mmHg 57%
    23:00 +24°C° 0 mm 1 m/S 755 mmHg 61%

    übermorgen, 22 Januar, Mittwoch

    Zeit Temperatur Niederschläge Wind Luftdruck Luftfeuchtigkeit
    00:00 +23°C° 0 mm 1 m/S 755 mmHg 66%
    01:00 +23°C° 0 mm 1 m/S 755 mmHg 71%
    02:00 +22°C° 0 mm 1 m/S 754 mmHg 75%
    03:00 +21°C° 0 mm 1 m/S 754 mmHg 78%
    04:00 +21°C° 0 mm 1 m/S 754 mmHg 81%
    05:00 +21°C° 0 mm 1 m/S 754 mmHg 82%
    06:00 +21°C° 0 mm 1 m/S 755 mmHg 82%
    07:00 +19°C° 0 mm 0 m/S 755 mmHg 83%
    08:00 +24°C° 0 mm 1 m/S 755 mmHg 70%
    09:00 +28°C° 0 mm 1 m/S 755 mmHg 57%
    10:00 +31°C° 0 mm 1 m/S 756 mmHg 44%
    11:00 +34°C° 0 mm 1 m/S 754 mmHg 39%
    12:00 +36°C° 0 mm 1 m/S 753 mmHg 34%
    13:00 +39°C° 0 mm 1 m/S 752 mmHg 29%
    14:00 +39°C° 0 mm 1 m/S 752 mmHg 29%
    15:00 +39°C° 0 mm 1 m/S 751 mmHg 28%
    16:00 +37°C° 0 mm 1 m/S 750 mmHg 28%
    17:00 +34°C° 0 mm 1 m/S 750 mmHg 34%
    18:00 +29°C° 0 mm 0 m/S 751 mmHg 39%
    19:00 +27°C° 0 mm 0 m/S 751 mmHg 45%
    20:00 +26°C° 0 mm 0 m/S 752 mmHg 47%
    21:00 +27°C° 0 mm 1 m/S 752 mmHg 49%
    22:00 +26°C° 0 mm 1 m/S 753 mmHg 50%
    23:00 +25°C° 0 mm 1 m/S 753 mmHg 58%

    23 Januar, Donnerstag

    Zeit Temperatur Niederschläge Wind Luftdruck Luftfeuchtigkeit
    00:00 +25°C° 0 mm 1 m/S 753 mmHg 66%
    01:00 +24°C° 0 mm 1 m/S 752 mmHg 73%
    02:00 +23°C° 0 mm 1 m/S 752 mmHg 76%
    03:00 +22°C° 0 mm 1 m/S 752 mmHg 80%
    04:00 +21°C° 0 mm 1 m/S 752 mmHg 83%
    05:00 +21°C° 0 mm 1 m/S 752 mmHg 84%
    06:00 +21°C° 0 mm 1 m/S 753 mmHg 85%
    07:00 +21°C° 0 mm 1 m/S 753 mmHg 86%
    08:00 +24°C° 0 mm 1 m/S 754 mmHg 73%
    09:00 +27°C° 0 mm 1 m/S 754 mmHg 60%
    10:00 +31°C° 0 mm 1 m/S 754 mmHg 47%
    11:00 +33°C° 0 mm 1 m/S 753 mmHg 41%
    12:00 +36°C° 0 mm 1 m/S 752 mmHg 36%
    13:00 +39°C° 0 mm 1 m/S 751 mmHg 30%
    14:00 +39°C° 0 mm 1 m/S 750 mmHg 29%
    15:00 +35°C° 0 mm 0 m/S 750 mmHg 29%
    16:00 +35°C° 0 mm 0 m/S 749 mmHg 28%
    17:00 +32°C° 0 mm 0 m/S 749 mmHg 35%
    18:00 +29°C° 0 mm 0 m/S 750 mmHg 42%
    19:00 +26°C° 0 mm 0 m/S 750 mmHg 49%
    20:00 +25°C° 0 mm 0 m/S 751 mmHg 50%
    21:00 +27°C° 0 mm 1 m/S 751 mmHg 51%
    22:00 +26°C° 0 mm 1 m/S 752 mmHg 52%
    23:00 +26°C° 0 mm 1 m/S 752 mmHg 56%

    24 Januar, Freitag

    Zeit Temperatur Niederschläge Wind Luftdruck Luftfeuchtigkeit
    00:00 +25°C° 0 mm 2 m/S 752 mmHg 60%
    01:00 +24°C° 0 mm 2 m/S 752 mmHg 64%
    02:00 +24°C° 0 mm 2 m/S 752 mmHg 70%
    03:00 +23°C° 0 mm 1 m/S 752 mmHg 75%
    04:00 +22°C° 0 mm 1 m/S 752 mmHg 80%
    05:00 +22°C° 0 mm 1 m/S 752 mmHg 81%
    06:00 +22°C° 0 mm 1 m/S 753 mmHg 82%
    07:00 +21°C° 0 mm 1 m/S 753 mmHg 83%
    08:00 +24°C° 0 mm 1 m/S 753 mmHg 72%
    09:00 +28°C° 0 mm 2 m/S 753 mmHg 60%
    10:00 +31°C° 0 mm 2 m/S 753 mmHg 49%
    11:00 +34°C° 0 mm 2 m/S 752 mmHg 43%
    12:00 +35°C° 0 mm 1 m/S 751 mmHg 36%
    13:00 +37°C° 0 mm 1 m/S 750 mmHg 30%
    14:00 +37°C° 0 mm 1 m/S 750 mmHg 28%
    15:00 +37°C° 0 mm 1 m/S 749 mmHg 27%
    16:00 +37°C° 0 mm 1 m/S 748 mmHg 26%
    17:00 +34°C° 0 mm 1 m/S 749 mmHg 32%
    18:00 +31°C° 0 mm 1 m/S 749 mmHg 39%
    19:00 +26°C° 0 mm 0 m/S 749 mmHg 45%
    20:00 +25°C° 0 mm 0 m/S 750 mmHg 47%
    21:00 +27°C° 0 mm 1 m/S 750 mmHg 49%
    22:00 +26°C° 0 mm 1 m/S 751 mmHg 51%
    23:00 +25°C° 0 mm 1 m/S 751 mmHg 55%

    25 Januar, Samstag

    Zeit Temperatur Niederschläge Wind Luftdruck Luftfeuchtigkeit
    00:00 +25°C° 0 mm 1 m/S 751 mmHg 59%
    01:00 +24°C° 0 mm 1 m/S 751 mmHg 63%
    02:00 +24°C° 0 mm 1 m/S 751 mmHg 69%
    03:00 +23°C° 0 mm 1 m/S 751 mmHg 75%
    04:00 +23°C° 0 mm 1 m/S 751 mmHg 81%
    05:00 +23°C° 0 mm 1 m/S 751 mmHg 82%
    06:00 +23°C° 0 mm 1 m/S 752 mmHg 83%
    07:00 +23°C° 0 mm 1 m/S 752 mmHg 84%
    08:00 +26°C° 0 mm 1 m/S 752 mmHg 72%
    09:00 +29°C° 0 mm 1 m/S 753 mmHg 60%
    10:00 +32°C° 0 mm 1 m/S 753 mmHg 48%
    11:00 +33°C° 0 mm 1 m/S 752 mmHg 44%
    12:00 +35°C° 0 mm 1 m/S 751 mmHg 39%
    13:00 +37°C° 0 mm 1 m/S 750 mmHg 34%
    14:00 +36°C° 0 mm 1 m/S 749 mmHg 34%
    15:00 +36°C° 0 mm 1 m/S 749 mmHg 33%
    16:00 +36°C° 0 mm 1 m/S 748 mmHg 32%
    17:00 +34°C° 0 mm 1 m/S 748 mmHg 38%
    18:00 +30°C° 0 mm 0 m/S 749 mmHg 43%
    19:00 +27°C° 0 mm 0 m/S 749 mmHg 49%
    20:00 +27°C° 0 mm 0 m/S 750 mmHg 50%
    21:00 +26°C° 0 mm 0 m/S 750 mmHg 52%
    22:00 +26°C° 0 mm 0 m/S 751 mmHg 54%
    23:00 +25°C° 0 mm 0 m/S 751 mmHg 56%
    Mehr zeigen